Location: Calvera
(42.3882°N, 0.6137°E)
Time: 20:08:37
(UTC+00:00)

COSMO-SKYMED 1 - Pass Details

Date: 28 October 2020
Orbit: 621 x 623 km, 97.9° (Epoch: 23 November)

Event Time Altitude Azimuth Distance (km) Brightness Sun altitude
Rises 04:57:31 0° 160° (SSE) 2,891 6.3 -16.9°
Reaches altitude 10° 04:59:42 10° 158° (SSE) 1,989 5.5 -16.5°
Maximum altitude 05:04:00 70° 75° (ENE) 668 2.9 -15.7°
Drops below altitude 10° 05:08:20 10° 352° (N) 2,003 5.0 -14.9°
Sets 05:10:33 0° 350° (N) 2,914 5.9 -14.5°
